Location: Darmstadt
(49.8706°N, 8.6494°E)
Time: 06:39:43
(UTC+01:00)

YAOGAN 3 - Pass Details

Date: 31 October 2020
Orbit: 625 x 627 km, 98.0° (Epoch: 03 December)

Event Time Altitude Azimuth Distance (km) Brightness Sun altitude
Rises 18:08:32 0° 158° (SSE) 2,902 7.9 -10.9°
Reaches altitude 10° 18:10:43 10° 157° (SSE) 2,000 7.0 -11.2°
Maximum altitude 18:15:04 72° 73° (ENE) 665 4.5 -11.9°
Drops below altitude 10° 18:19:26 10° 350° (N) 2,016 7.2 -12.6°
Sets 18:21:38 0° 348° (NNW) 2,927 8.1 -13.0°
